Regional Weather Roundup
Issued by NWS

Home | Current Version | Previous Version | Graphics & Text | Print | Product List | Glossary On
Versions: 1 2 3 4 5 6 7 8 9 10 11 12 13 14 15 16 17 18 19 20 21 22 23 24 25 26 27 28 29 30 31 32 33 34 35 36 37 38 39 40 41 42 43 44 45 46 47 48 49 50
000
ASUS43 KLOT 290108
RWRIL

ILLINOIS REGIONAL WEATHER ROUNDUP
NATIONAL WEATHER SERVICE CHICAGO/ROMEOVILLE IL
800 PM CDT FRI AUG 28 2015

NOTE: "FAIR" INDICATES FEW OR NO CLOUDS BELOW 12,000 FEET WITH NO
SIGNIFICANT WEATHER AND/OR OBSTRUCTIONS TO VISIBILITY.

* THESE STATIONS ARE NOT UNDER NWS QUALITY CONTROL. THEY ALSO MAY NOT
  REPORT WEATHER SUCH AS PRECIPITATION OR FOG.

ILZ001-002-007-009-015-016-024-290200-
NORTHWEST ILLINOIS

CITY           SKY/WX    TMP DP  RH WIND       PRES   REMARKS
MOLINE         LGT RAIN  70  62  76 E13       29.96F
STERLING*      CLOUDY    68  63  83 E7        29.99S
SAVANNA*       LGT RAIN  66  63  87 E14       29.99F
$$

ILZ003-004-008-010-011-017-018-290200-
NORTH CENTRAL ILLINOIS

CITY           SKY/WX    TMP DP  RH WIND       PRES   REMARKS
ROCKFORD       CLOUDY    68  60  75 E9        30.06S
FREEPORT*      DRIZZLE   64  62  93 E9        30.04F
ROCHELLE*      CLOUDY    66  62  87 E7        30.04S
DE KALB*       CLOUDY    66  62  87 E10       30.05F
PERU*          CLOUDY    72  62  71 SE9       30.03S
$$

ILZ005-006-012>014-019>023-290200-
NORTHEAST ILLINOIS

CITY           SKY/WX    TMP DP  RH WIND       PRES   REMARKS
CHICAGO-OHARE  CLOUDY    71  60  68 E6        30.06S
CHICAGO-MIDWAY CLOUDY    74  61  63 E9        30.06S
AURORA         CLOUDY    67  64  90 E5        30.06S
LANSING*       CLOUDY    69  62  77 E3        30.08R
JOLIET*        CLOUDY    71  64  78 E5        30.06S
WAUKEGAN       CLOUDY    63  60  90 CALM      30.07F
DUPAGE AIRPORT CLOUDY    69  61  75 E3        30.06S
KANKAKEE*      CLOUDY    69  64  83 CALM      30.07S
WHEELING       CLOUDY    69  60  73 CALM      30.08S
MORRIS*        CLOUDY    68  64  85 E5        30.04S
ROMEOVILLE*    CLOUDY    69  61  76 CALM      30.07R
NORTHERLY ISL    N/A     67  62  84 CALM        N/A
$$

LMZ740>746-290200-
SOUTHERN LAKE MICHIGAN

STATION/POSITION SKY/WX   TEMP    WIND        PRES    VSBY  WAVE
                          AIR SEA DIR/SP/G                  HT/PER
                          (F)     (DEG/KT/KT) (MB)    (MI)  (FT/S)
SOUTHERN BUOY              68 69  100/  2/  2 1018.9R         1
WILMETTE HARBOR            65 60  190/  2/  4   N/A           0
HARRISON CRIB              70      80/  6/  6   N/A
BURNHAM HARBOR             66     280/  2/  2   N/A
BURNS HARBOR               71      90/  2/  7 1018.6S
MICHIGAN CITY              72      70/  4/  5   N/A
MICHIGAN CITY 6N           71 71  100/  4/  6   N/A           0
ST. JOSEPH                 71 71  110/  6/  6   N/A           0
$$

ILZ025>027-034>036-040-047-049-050-058-095>099-290200-
WEST-CENTRAL ILLINOIS

CITY           SKY/WX    TMP DP  RH WIND       PRES   REMARKS
QUINCY         CLOUDY    73  62  68 S9        29.95F
GALESBURG*     CLOUDY    68  62  80 SE6       29.98S
MACOMB*        CLOUDY    70  62  76 SE6       29.99S
JACKSONVILLE*  MOCLDY    73  63  72 SE6       29.99F
PITTSFIELD*    CLOUDY    73  62  68 SE9       29.97F
$$

ILZ028>032-037-038-041>044-048-051>054-059>061-290200-
CENTRAL ILLINOIS

CITY           SKY/WX    TMP DP  RH WIND       PRES   REMARKS
PONTIAC        CLOUDY    69  65  88 SE5       30.05R
BLOOMINGTON    MOCLDY    70  62  75 S7        30.06R
DECATUR        CLOUDY    71  58  63 SE6       30.04R
PEORIA         CLOUDY    74  60  61 S7        30.01S
LACON*         CLOUDY    70  62  75 SE7       30.01S
LINCOLN*       MOCLDY    71  59  66 SE5       30.02S
SPRINGFIELD    MOCLDY    73  60  63 S6        30.02R
TAYLORVILLE    CLOUDY    70  61  73 SE6       30.03R
$$

ILZ033-039-045-046-055>057-062-063-290200-
EAST-CENTRAL ILLINOIS

CITY           SKY/WX    TMP DP  RH WIND       PRES   REMARKS
CHAMPAIGN      MOCLDY    68  61  78 SE5       30.06R
RANTOUL*       CLOUDY    71  62  73 SE6       30.06R
MATTOON        CLOUDY    70  57  63 SE5       30.04S
PARIS*         MOCLDY    67  61  79 E3        30.07S
$$

ILZ079-100>102-290200-
SOUTHWEST ILLINOIS

CITY           SKY/WX    TMP DP  RH WIND       PRES   REMARKS
ALTON          CLOUDY    70  63  78 SE3       30.01
BELLEVILLE     CLOUDY    72  65  77 E3        30.00S HAZE
CAHOKIA*       CLOUDY    73  62  68 SE5       30.00S
SPARTA*        MOCLDY    71  64  77 CALM      30.03S
$$

ILZ064>066-069>071-074>076-080>082-084>086-088>090-092>094-290200-
SOUTH-CENTRAL ILLINOIS

CITY           SKY/WX    TMP DP  RH WIND       PRES   REMARKS
CARBONDALE     CLEAR     69  65  86 E3        30.03S
CAIRO*         PTCLDY    73  68  86 CALM      30.02S
EFFINGHAM*     MOCLDY    69  58  68 CALM      30.06S
MARION         CLEAR     72  64  78 E3        30.04S
MT. VERNON     PTCLDY    68  59  73 CALM      30.05S
SALEM*         MOCLDY    73  60  63 CALM      30.03S
METROPOLIS*    PTCLDY    72  69  90 CALM      30.04R
$$

ILZ067-068-072-073-078-083-087-091-290200-
SOUTHEAST ILLINOIS

CITY           SKY/WX    TMP DP  RH WIND       PRES   REMARKS
LAWRENCEVILLE  PTCLDY    69  61  75 E6        30.06S
FLORA*         PTCLDY    68  61  76 SE3       30.04F
FAIRFIELD*     PTCLDY    69  64  83 CALM      30.03F
HARRISBURG*    CLEAR     70  65  86 CALM      30.04S
ROBINSON*      PTCLDY    66  61  82 SE3       30.06S
CARMI*         CLEAR     70  66  88 CALM      30.04S
$$

ABBREVIATIONS USED IN REMARKS
   TC - TEMPERATURE IN CELSIUS
  WCI - WIND CHILL INDEX
   HX - HEAT INDEX
  VSB - VISIBILITY
$$




USA.gov is the U.S. government's official web portal to all federal, state and local government web resources and services.